Weather in Skomorokhovo

Russia / Yaroslavl Oblast     56°59′10″N   38°43′40″E
temp.,
°C
wind,
m/s
gust,
m/s
humid.,
%
clouds,
%
prec.,
mm/h
press.,
hPa
HPBL,
m
27 september, mon
mon2700:00+8nne3992100 0.3 1016464
03:00+6nnw31096100 0.4 1018334
06:00+7n41095100 0.1 1019527
09:00+8n41094100 0.3 1021667
12:00+9n498999 0.1 1022726
15:00+10n4986100 0.4 1023919
18:00+8nne4992100 0.4 1024804
21:00+8ne4992100 0.5 10251001
28 september, tue
tue2800:00+7ne4991100 0.3 1027807
03:00+6ne3887100 0.3 1028750
06:00+5ne3890100 0.0 1030558
09:00+5ene478531 0.0 1031492
12:00+9ene35625 0.0 1032910
15:00+10ne345196 0.0 10321074
18:00+6nne227476 0.0 103437
21:00+4nne2281100 0.0 103431
29 september, wed
wed2900:00+4nne2283100 0.0 103517
03:00+3n2287100 0.0 103522
06:00+3n229299 0.0 103631
09:00+7n2381100 0.0 1036258
12:00+10nne236645 0.0 1035866
15:00+11n236291 0.0 10341165
18:00+9nnw227474 0.0 103424
21:00+6n119198 0.0 103510
30 september, thu
thu3000:00+8nw1184100 0.0 103511
03:00+7wnw1186100 0.0 103522
06:00+6nw129255 0.0 103523
09:00+9nnw1380100 0.0 1035246
12:00+11nw127237 0.0 1035634
15:00+13nw1265100 0.0 10341098
18:00+10nw1176100 0.0 103426
21:00+10wnw228298 0.0 103561
1 october, fri
fri100:00+9w2385100 0.0 103595
03:00+9w2485100 0.0 1035134
06:00+8w2488100 0.0 1035163
09:00+9w2380100 0.0 1035179
12:00+12w236482 0.0 1035627
15:00+13wsw235534 0.0 10341279
18:00+9wsw22770 0.0 103314
21:00+7sw22840 0.0 103424